Find Hangtian Qinghua 1

NORAD ID: 26385 Int'l Des: 2000-033 Owner: TSHUA Country: CN operational
LEOCIRCULARRETROGRADESSO

Live Position

Loading 3D Globe...

About Hangtian Qinghua 1

Description loading...

Upcoming Passes

Passes for default location (London). Set your location on the main map for personalized predictions.

Altitude History

Loading altitude history...

Two-Line Element Set

1 26385U 00033B 26104.88507539 .00000383 00000-0 74659-4 0 9997
2 26385 97.8762 80.6526 0013347 307.1068 52.8917 14.68175329377594
Epoch: Apr 14, 2026 • Age: 14 hours

Current Status

Altitude 685.4 km
Velocity 7.51 km/s
Sub-Earth Point 54.83°N, 94.55°W
Launch Date Jun 28, 2000
Age 25.7 years
Type other

Technical Details

Classification Payload
Mass 50.00 kg
Dry Mass 50.00 kg
Total Mass 50.00 kg
Length 0.60 m
Diameter 0.40 m
Span 6.00 m
Shape Box + Ant
Manufacturer SSTL
Bus Type UoSAT MS-70
Phase Status In Orbit
Owner/State TSHUA/CN

Most Searched